CW9721 Weather Reports


time (UTC)temp
C
wind
direction
speed
KPH
gust
KPH
rain 1hr
cm
rain 24hr
cm
rain mn
cm
humidity
%
barometer
mb
20260507183401 11 21 11.3 16.1 0.15 2.51 2.51 85 1009.2
20260507182914 11 355 11.3 19.3 0.13 2.49 2.49 85 1009.2
20260507182412 11 9 12.9 19.3 0.15 2.49 2.49 85 1008.6
20260507181907 11 355 9.7 17.7 0.15 2.49 2.49 85 1008.4
20260507181409 11 355 9.7 19.3 0.15 2.46 2.46 85 1008.6
20260507180830 11 345 8.0 19.3 0.18 2.46 2.46 85 1008.8
20260507180326 11 360 9.7 22.5 0.18 2.46 2.46 85 1008.7
20260507175846 11 5 8.0 25.7 0.18 2.46 2.46 85 1009.0
20260507175350 11 360 9.7 19.3 0.18 2.44 2.44 85 1009.3
20260507174917 11 25 11.3 19.3 0.18 2.44 2.44 85 1009.5
20260507174417 11 57 8.0 20.9 0.15 2.41 2.41 85 1009.6
20260507173903 11 15 11.3 17.7 0.13 2.39 2.39 85 1009.8
20260507173403 11 347 9.7 16.1 0.13 2.36 2.36 85 1009.9
20260507172839 11 19 11.3 19.3 0.15 2.36 2.36 85 1010.0
20260507172404 11 5 11.3 19.3 0.18 2.34 2.34 85 1010.2
20260507171858 11 18 9.7 17.7 0.20 2.31 2.31 85 1010.2
20260507171409 11 13 6.4 17.7 0.23 2.31 2.31 84 1010.2
20260507170906 11 39 4.8 16.1 0.25 2.29 2.29 84 1010.1
20260507170351 11 51 4.8 17.7 0.30 2.29 2.29 84 1010.1
20260507165919 11 5 6.4 20.9 0.33 2.29 2.29 84 1010.0
20260507165423 11 336 11.3 20.9 0.36 2.26 2.26 85 1009.8
20260507164855 11 19 6.4 17.7 0.41 2.26 2.26 84 1010.0
20260507163922 11 68 9.7 24.1 0.48 2.24 2.24 85 1009.9
20260507162826 11 360 12.9 22.5 0.53 2.18 2.18 85 1009.9
20260507162411 11 34 11.3 25.7 0.56 2.16 2.16 85 1009.8
20260507161835 11 315 9.7 24.1 0.56 2.11 2.11 85 1009.8
20260507160908 11 19 11.3 19.3 0.58 2.03 2.03 85 1010.1
20260507160408 11 5 11.3 16.1 0.61 1.98 1.98 85 1010.0
20260507155854 11 5 9.7 19.3 0.61 1.93 1.93 85 1010.0
20260507155403 11 44 8.0 22.5 0.61 1.91 1.91 85 1009.0
20260507154858 11 22 8.0 22.5 0.56 1.85 1.85 85 1009.5
20260507154352 11 360 12.9 20.9 0.51 1.80 1.80 85 1009.8
20260507153419 12 360 14.5 22.5 0.41 1.70 1.70 85 1010.1
20260507152916 12 17 11.3 17.7 0.36 1.65 1.65 85 1010.2
20260507152323 12 355 11.3 30.6 0.30 1.60 1.60 85 1010.2
20260507151829 12 40 11.3 30.6 0.28 1.55 1.55 85 1010.1
20260507151340 12 24 12.9 24.1 0.23 1.50 1.50 85 1010.2
20260507150839 12 355 14.5 24.1 0.18 1.42 1.42 85 1010.2
20260507150341 13 355 12.9 24.1 0.13 1.37 1.37 85 1010.2
20260507145900 13 12 11.3 24.1 0.08 1.32 1.32 85 1010.3
20260507145411 13 299 14.5 24.1 0.05 1.30 1.30 85 1010.3
20260507144905 13 55 12.9 20.9 0.05 1.30 1.30 85 1010.0
20260507144325 13 355 12.9 24.1 0.05 1.30 1.30 85 1010.0
20260507143824 13 53 14.5 24.1 0.05 1.30 1.30 85 1010.0
20260507143327 13 25 11.3 24.1 0.08 1.30 1.30 84 1009.8
20260507142844 13 22 12.9 24.1 0.08 1.30 1.30 85 1009.7
20260507142356 13 346 14.5 24.1 0.08 1.30 1.30 85 1009.9
20260507141907 14 16 14.5 24.1 0.05 1.27 1.27 85 1009.8
20260507141335 14 355 11.3 24.1 0.10 1.27 1.27 84 1009.6
20260507140854 14 355 11.3 20.9 0.10 1.24 1.24 84 1009.5
20260507140408 14 337 8.0 29.0 0.15 1.24 1.24 84 1009.5
20260507135346 15 14 11.3 22.5 0.15 1.24 1.24 84 1009.5
20260507134840 15 35 11.3 30.6 0.15 1.24 1.24 84 1009.5
20260507134359 15 31 14.5 30.6 0.15 1.24 1.24 84 1009.6
20260507133333 15 355 9.7 25.7 0.13 1.22 1.22 84 1009.4
20260507132851 15 355 12.9 32.2 0.13 1.22 1.22 84 1009.3
20260507132357 15 344 16.1 32.2 0.15 1.22 1.22 85 1009.5
20260507131902 15 344 14.5 24.1 0.15 1.22 1.22 84 1009.5
20260507131353 16 5 9.7 19.3 0.15 1.19 1.19 84 1009.4
20260507130911 16 360 9.7 14.5 0.13 1.14 1.14 84 1009.6
20260507125919 16 323 8.0 17.7 0.10 1.09 1.09 84 1009.8
20260507125330 16 10 11.3 17.7 0.13 1.09 1.09 84 1009.6
20260507124841 16 347 8.0 12.9 0.15 1.09 1.09 84 1009.6
20260507124350 16 15 8.0 14.5 0.15 1.09 1.09 84 1009.5
20260507123419 16 325 6.4 14.5 0.20 1.09 1.09 84 1009.6
20260507122902 16 340 8.0 16.1 0.23 1.09 1.09 84 1009.8
20260507121838 16 348 6.4 19.3 0.36 1.07 1.07 84 1009.5
20260507121347 16 360 6.4 19.3 0.38 1.07 1.07 85 1009.7
20260507120859 16 322 8.0 22.5 0.41 1.04 1.04 85 1009.5
20260507120349 16 322 9.7 22.5 0.38 1.02 1.02 85 1009.5
20260507115857 16 5 11.3 20.9 0.36 0.99 0.99 85 1009.6
20260507115405 16 309 12.9 20.9 0.36 0.97 0.97 86 1009.5
20260507114853 16 277 6.4 19.3 0.36 0.94 0.94 86 1009.5
20260507114402 17 355 12.9 19.3 0.38 0.94 0.94 86 1009.3
20260507113415 18 360 12.9 24.1 0.48 0.89 0.89 85 1008.9
20260507112922 18 217 1.6 9.7 0.61 0.86 0.86 84 1008.7
20260507112409 19 223 1.6 6.4 0.71 0.81 0.81 84 1008.8
20260507111835 19 156 1.6 8.0 0.61 0.69 0.69 84 1008.8
20260507111344 19 248 3.2 8.0 0.61 0.66 0.66 84 1008.8
20260507110836 19 267 1.6 8.0 0.61 0.64 0.64 85 1008.7
20260507110400 19 210 1.6 8.0 0.61 0.64 0.64 85 1008.8
20260507105909 19 170 1.6 8.0 0.61 0.64 0.64 85 1008.9
20260507104823 19 207 1.6 9.7 0.56 0.58 0.58 85 1008.5
20260507104339 19 225 1.6 6.4 0.53 0.56 0.56 86 1008.5
20260507103847 19 252 0.0 3.2 0.46 0.48 0.48 86 1008.5
20260507103355 19 226 1.6 9.7 0.36 0.38 0.38 86 1008.5
20260507102857 20 258 1.6 9.7 0.20 0.23 0.23 86 1008.5
20260507101836 20 241 0.0 6.4 0.05 0.08 0.08 86 1008.3
20260507101348 20 247 0.0 8.0 0.03 0.05 0.05 86 1008.3
20260507100852 20 218 1.6 12.9 0.00 0.03 0.03 86 1008.3
20260507100357 20 263 3.2 12.9 0.00 0.03 0.03 86 1007.9
20260507095907 20 276 3.2 8.0 0.00 0.03 0.03 86 1007.8
20260507095400 20 186 1.6 8.0 0.00 0.03 0.03 86 1007.7
20260507094926 20 208 1.6 8.0 0.00 0.03 0.03 86 1007.7
20260507094331 20 193 0.0 3.2 0.00 0.03 0.03 85 1007.4
20260507093830 20 223 1.6 3.2 0.00 0.03 0.03 85 1007.4
20260507093336 20 218 1.6 6.4 0.00 0.03 0.03 85 1007.5
20260507092832 20 180 3.2 6.4 0.00 0.03 0.03 85 1007.5
20260507092350 20 253 0.0 3.2 0.00 0.03 0.03 85 1007.6
20260507091850 20 234 0.0 8.0 0.03 0.03 0.03 84 1007.8
20260507091357 20 174 3.2 9.7 0.03 0.03 0.03 84 1007.9
20260507090844 20 214 3.2 12.9 0.03 0.03 0.03 84 1007.8
20260507090354 20 233 3.2 14.5 0.03 0.03 0.03 83 1007.8
20260507085901 20 275 4.8 14.5 0.03 0.03 0.03 83 1008.0
20260507085411 20 195 0.0 9.7 0.03 0.03 0.03 83 1008.0
20260507084904 20 179 3.2 11.3 0.03 0.03 0.03 83 1007.9
20260507084353 20 186 3.2 11.3 0.03 0.03 0.03 83 1008.3
20260507083900 20 228 3.2 14.5 0.03 0.03 0.03 83 1008.2
20260507083414 20 190 4.8 14.5 0.03 0.03 0.03 83 1008.4
20260507082922 20 183 1.6 16.1 0.03 0.03 0.03 83 1008.4
20260507082406 20 197 6.4 16.1 0.03 0.03 0.03 83 1008.2
20260507081907 20 190 3.2 11.3 0.00 0.00 0.00 83 1008.6
20260507081358 20 215 3.2 11.3 0.00 0.00 0.00 83 1008.7
20260507080915 20 224 3.2 12.9 0.00 0.00 0.00 84 1008.6
20260507080419 20 253 4.8 12.9 0.00 0.00 0.00 84 1008.5
20260507075825 20 151 3.2 12.9 0.00 0.00 0.00 84 1008.8
20260507075334 20 183 1.6 12.9 0.00 0.00 0.00 84 1008.9
20260507074856 20 189 3.2 12.9 0.00 0.00 0.00 84 1008.9
20260507074349 20 165 3.2 9.7 0.00 0.00 0.00 84 1008.9
20260507073835 20 232 3.2 9.7 0.00 0.00 0.00 85 1008.9
20260507073341 20 204 3.2 9.7 0.00 0.00 0.00 84 1008.9
20260507072846 20 184 1.6 11.3 0.00 0.00 0.00 84 1008.9
20260507072329 20 248 1.6 11.3 0.00 0.00 0.00 84 1008.9
20260507071831 20 188 1.6 9.7 0.00 0.00 0.00 84 1008.7
20260507071355 20 188 1.6 9.7 0.00 0.00 0.00 84 1008.3
20260507070857 20 180 4.8 9.7 0.00 0.00 0.00 84 1008.4
20260507070414 20 178 1.6 8.0 0.00 0.00 0.00 84 1008.6
20260507065821 20 174 0.0 6.4 0.00 0.00 0.00 83 1008.3
20260507065439 20 184 1.6 8.0 0.00 0.00 0.00 83 1007.9
20260507064831 20 190 1.6 9.7 0.00 0.00 0.00 83 1007.8
20260507064333 20 176 3.2 9.7 0.00 0.00 0.00 83 1008.1
20260507063940 20 191 3.2 8.0 0.00 0.00 0.00 82 1007.7
20260507063329 20 168 4.8 0.0 0.00 0.00 0.00 82 1007.6
20260507062829 20 200 4.8 14.5 0.00 0.00 0.00 81 1008.3
20260507062346 20 182 8.0 14.5 0.00 0.00 0.00 81 1008.7
20260507061337 20 192 1.6 11.3 0.00 0.00 0.00 81 1009.2
20260507060844 21 184 3.2 11.3 0.00 0.00 0.00 80 1009.2
20260507060403 21 246 1.6 9.7 0.00 0.00 0.00 80 1009.2
20260507060112 20 175 0.0 11.3 0.00 0.00 0.00 79 1009.1
20260507055826 21 195 3.2 11.3 0.00 0.00 0.00 79 1009.2
20260507055340 21 188 4.8 9.7 0.00 0.00 0.00 78 1009.2
20260507054833 21 238 3.2 9.7 0.00 0.00 0.00 77 1009.3
20260507054639 21 190 1.6 9.7 0.00 0.00 0.00 77 1009.2
20260507054325 21 206 3.2 9.7 0.00 0.00 0.00 76 1009.3
20260507053841 21 185 1.6 9.7 0.00 0.00 0.00 75 1009.4
20260507053333 21 265 1.6 11.3 0.00 0.00 0.00 74 1009.3
20260507053008 21 242 3.2 11.3 0.00 0.00 0.00 73 1009.3
20260507052829 21 178 3.2 11.3 0.00 0.00 0.00 73 1009.4
20260507052344 21 234 1.6 12.9 0.00 0.00 0.00 72 1009.4
20260507051839 21 182 3.2 12.9 0.00 0.00 0.00 72 1009.4
20260507051513 21 197 3.2 11.3 0.00 0.00 0.00 71 1009.4
20260507051335 21 180 3.2 11.3 0.00 0.00 0.00 71 1009.4
20260507050829 22 216 3.2 14.5 0.00 0.00 0.00 70 1009.3
20260507050024 21 175 0.0 14.5 0.00 0.00 0.00 69 1009.2
20260507045832 22 178 4.8 14.5 0.00 0.00 0.00 69 1009.2
20260507045325 22 186 4.8 16.1 0.00 0.00 0.00 69 1009.2
20260507044841 22 218 6.4 16.1 0.00 0.00 0.00 68 1009.2
20260507044519 21 188 8.0 16.1 0.00 0.00 0.00 68 1009.3
20260507044325 22 181 6.4 14.5 0.00 0.00 0.00 68 1009.3
20260507043841 22 180 4.8 14.5 0.00 0.00 0.00 68 1009.4
20260507043355 22 187 3.2 19.3 0.00 0.00 0.00 68 1009.4
20260507043103 21 212 1.6 19.3 0.00 0.00 0.00 68 1009.4
20260507042826 22 203 1.6 19.3 0.00 0.00 0.00 68 1009.5
20260507042323 22 200 4.8 17.7 0.00 0.00 0.00 68 1009.5
20260507041821 22 220 4.8 17.7 0.00 0.00 0.00 68 1009.4
20260507041615 21 168 8.0 17.7 0.00 0.00 0.00 68 1009.4
20260507041358 22 174 8.0 17.7 0.00 0.00 0.00 68 1009.4
20260507040833 22 194 6.4 17.7 0.00 0.00 0.00 69 1009.4
20260507040331 22 188 8.0 17.7 0.00 0.00 0.00 69 1009.3
20260507035829 22 261 6.4 14.5 0.00 0.00 0.00 69 1009.3
20260507035327 22 153 3.2 16.1 0.00 0.00 0.00 69 1009.1
20260507034856 22 230 4.8 16.1 0.00 0.00 0.00 70 1009.0
20260507034356 22 206 4.8 16.1 0.00 0.00 0.00 70 1009.1
20260507033831 22 172 8.0 16.1 0.00 0.00 0.00 71 1009.2
20260507033348 22 171 4.8 14.5 0.00 0.00 0.00 71 1009.0
20260507032903 22 198 3.2 9.7 0.00 0.00 0.00 71 1008.8
20260507032352 22 199 4.8 16.1 0.00 0.00 0.00 71 1008.8
20260507031941 22 203 8.0 16.1 0.00 0.00 0.00 71 1009.2
20260507031420 22 205 8.0 14.5 0.00 0.00 0.00 71 1009.3
20260507030916 22 229 4.8 9.7 0.00 0.00 0.00 71 1009.2
20260507030414 22 204 1.6 8.0 0.00 0.00 0.00 72 1009.2
20260507025846 22 259 3.2 9.7 0.00 0.00 0.00 72 1009.3
20260507025332 22 244 3.2 9.7 0.00 0.00 0.00 72 1009.2
20260507024844 22 207 1.6 8.0 0.00 0.00 0.00 72 1009.4
20260507024349 23 203 1.6 8.0 0.00 0.00 0.00 72 1009.4
20260507023327 23 191 3.2 14.5 0.00 0.00 0.00 72 1009.5
20260507022836 23 199 1.6 9.7 0.00 0.00 0.00 72 1009.5
20260507021831 23 184 3.2 14.5 0.00 0.00 0.00 71 1009.4
20260507021339 23 206 6.4 14.5 0.00 0.00 0.00 71 1009.4
20260507020854 23 201 6.4 16.1 0.00 0.00 0.00 72 1009.4
20260507020359 23 181 8.0 16.1 0.00 0.00 0.00 72 1009.4
20260507015857 23 190 4.8 11.3 0.00 0.00 0.00 72 1009.7
20260507015352 23 192 3.2 9.7 0.00 0.00 0.00 72 1010.0
20260507014840 23 157 3.2 12.9 0.00 0.00 0.00 72 1009.9
20260507014329 23 202 1.6 8.0 0.00 0.00 0.00 71 1009.5
20260507013846 23 200 3.2 9.7 0.00 0.00 0.00 70 1009.4
20260507013348 23 206 3.2 11.3 0.00 0.00 0.00 70 1009.3
20260507012849 23 180 3.2 16.1 0.00 0.00 0.00 69 1009.4
20260507012400 23 225 4.8 16.1 0.00 0.00 0.00 68 1009.5
20260507011905 23 190 1.6 8.0 0.00 0.00 0.00 67 1009.4
20260507011413 23 192 1.6 8.0 0.00 0.00 0.00 66 1009.4
20260507010914 23 209 3.2 8.0 0.00 0.00 0.00 65 1009.8
20260507010410 23 186 3.2 8.0 0.00 0.00 0.00 64 1009.7
20260507005338 23 192 3.2 8.0 0.00 0.00 0.00 63 1009.5
20260507004421 24 234 1.6 12.9 0.00 0.00 0.00 62 1009.4
20260507003922 24 195 1.6 12.9 0.00 0.00 0.00 62 1009.4
20260507003338 24 180 1.6 8.0 0.00 0.00 0.00 62 1009.3
20260507002844 24 200 1.6 8.0 0.00 0.00 0.00 61 1009.3
20260507002413 24 207 1.6 9.7 0.00 0.00 0.00 61 1009.3
20260507001837 24 173 3.2 9.7 0.00 0.00 0.00 61 1009.3
20260507001330 24 192 1.6 11.3 0.00 0.00 0.00 61 1009.3
20260507000823 24 188 3.2 11.3 0.00 0.00 0.00 60 1009.1
20260507000330 24 190 1.6 9.7 0.00 0.00 0.00 60 1009.2
20260506235849 25 182 3.2 12.9 0.00 0.00 0.00 60 1009.2
20260506235417 25 200 4.8 12.9 0.00 0.00 0.00 60 1009.2
20260506234922 25 192 3.2 11.3 0.00 0.00 0.00 59 1009.2
20260506234413 25 221 3.2 12.9 0.00 0.00 0.00 59 1009.1
20260506233835 25 234 4.8 12.9 0.00 0.00 0.00 59 1008.8
20260506233409 25 180 4.8 14.5 0.00 0.00 0.00 58 1008.8
20260506232342 25 167 1.6 11.3 0.00 0.00 0.00 58 1008.7
20260506231912 25 178 4.8 12.9 0.00 0.00 0.00 58 1008.7
20260506231407 25 220 4.8 16.1 0.00 0.00 0.00 57 1008.6
20260506230902 25 255 3.2 16.1 0.00 0.00 0.00 57 1008.6
20260506225923 25 191 4.8 12.9 0.00 0.00 0.00 57 1008.6
20260506225418 25 190 3.2 12.9 0.00 0.00 0.00 57 1008.5
20260506224916 25 236 3.2 16.1 0.00 0.00 0.00 57 1008.4
20260506224328 25 198 1.6 19.3 0.00 0.00 0.00 57 1008.4
20260506223825 25 257 4.8 19.3 0.00 0.00 0.00 57 1008.6
20260506223332 26 157 3.2 17.7 0.00 0.00 0.00 58 1008.6
20260506222833 26 183 8.0 17.7 0.00 0.00 0.00 58 1008.5
20260506222400 26 173 4.8 14.5 0.00 0.00 0.00 58 1008.6
20260506221913 26 178 4.8 14.5 0.00 0.00 0.00 58 1008.6
20260506221439 26 171 6.4 0.0 0.00 0.00 0.00 58 1008.6
20260506220847 26 182 3.2 17.7 0.00 0.00 0.00 58 1008.6
20260506220403 26 222 8.0 22.5 0.00 0.00 0.00 58 1008.5
20260506215930 26 207 9.7 22.5 0.00 0.00 0.00 58 1008.4
20260506214926 26 254 6.4 24.1 0.00 0.00 0.00 58 1008.7
20260506214329 26 187 3.2 22.5 0.00 0.00 0.00 58 1008.5
20260506213934 26 200 8.0 20.9 0.00 0.00 0.00 58 1008.5
20260506213403 26 190 6.4 25.7 0.00 0.00 0.00 58 1008.3
20260506212906 26 163 6.4 25.7 0.00 0.00 0.00 57 1008.1
20260506212355 26 249 11.3 33.8 0.00 0.00 0.00 57 1008.2
20260506211435 26 179 12.9 32.2 0.00 0.00 0.00 56 1008.4
20260506210822 26 264 11.3 24.1 0.00 0.00 0.00 57 1008.6
20260506205836 26 268 6.4 19.3 0.00 0.00 0.00 58 1008.5
20260506205342 25 242 6.4 24.1 0.00 0.00 0.00 58 1008.6
20260506204911 26 177 12.9 30.6 0.00 0.00 0.00 57 1008.6
20260506204412 26 180 9.7 30.6 0.00 0.00 0.00 57 1008.6
20260506203923 26 179 9.7 24.1 0.00 0.00 0.00 57 1008.9
20260506203407 26 171 4.8 24.1 0.00 0.00 0.00 58 1009.0
20260506202900 26 94 9.7 20.9 0.00 0.00 0.00 57 1009.2
20260506201832 26 207 6.4 25.7 0.00 0.00 0.00 59 1009.4
20260506201340 26 205 9.7 43.5 0.00 0.00 0.00 58 1009.6
20260506200852 26 212 16.1 43.5 0.00 0.00 0.00 58 1009.7
20260506200412 26 189 8.0 19.3 0.00 0.00 0.00 59 1009.7
20260506195823 26 189 4.8 20.9 0.00 0.00 0.00 60 1009.8
20260506195331 26 263 8.0 20.9 0.00 0.00 0.00 60 1009.9
20260506194938 26 213 8.0 20.9 0.00 0.00 0.00 61 1010.0
20260506194420 26 180 8.0 24.1 0.00 0.00 0.00 60 1010.0
20260506193915 26 238 6.4 24.1 0.00 0.00 0.00 61 1010.0
20260506192847 26 196 4.8 25.7 0.00 0.00 0.00 61 1010.0
20260506192355 25 232 6.4 25.7 0.00 0.00 0.00 62 1010.1
20260506191417 25 203 6.4 24.1 0.00 0.00 0.00 62 1010.1
20260506190344 25 200 6.4 33.8 0.00 0.00 0.00 62 1010.3
20260506185845 25 231 14.5 33.8 0.00 0.00 0.00 61 1010.4
20260506185348 25 234 11.3 33.8 0.00 0.00 0.00 61 1010.3
20260506184850 25 197 8.0 25.7 0.00 0.00 0.00 60 1010.4
20260506184412 25 184 8.0 25.7 0.00 0.00 0.00 60 1010.5